Regional Weather Roundup
Issued by NWS

Home | Current Version | Previous Version | Text Only | Print | Product List | Glossary Off
Versions: 1 2 3 4 5 6 7 8 9 10 11 12 13 14 15 16 17 18 19 20 21 22 23 24 25 26 27 28 29 30 31 32 33 34 35 36 37 38 39 40 41 42 43 44 45 46 47 48 49 50

398
ASUS43 KOAX 241502
RWRNE

WEATHER ROUNDUP FOR NEBRASKA
NATIONAL WEATHER SERVICE OMAHA NE
1000 AM CDT FRI MAR 24 2017

NOTES: SATELLITE DATA IS BEING USED TO AUGMENT CLOUD COVER ABOVE
       12000 FEET.
       "FAIR" INDICATES FEW OR NO CLOUDS BELOW 12,000 FEET WITH NO
       SIGNIFICANT WEATHER AND/OR OBSTRUCTIONS TO VISIBILITY.

  * THESE STATIONS DO NOT REPORT WEATHER SUCH AS RAIN...SNOW OR FOG.

NEZ001>004-019>022-054>056-241600-
NEBRASKA PANHANDLE

CITY           SKY/WX    TMP DP  RH WIND       PRES   REMARKS
SCOTTSBLUFF    CLOUDY    44  35  70 N14       30.09R
CHADRON        CLOUDY    44  37  76 N7        30.12R
KIMBALL        CLOUDY    39  38  97 N26G35    30.02S WCI  28
SIDNEY         CLOUDY    39  36  89 N26G37    29.99R WCI  28
$$

NEZ057>060-069>072-079>082-241600-
SOUTHWEST NEBRASKA

CITY           SKY/WX    TMP DP  RH WIND       PRES   REMARKS
NORTH PLATTE   LGT RAIN  42  38  85 N29G39    29.88F FOG
IMPERIAL       CLOUDY    42  39  89 NE30G38   29.89R
LEXINGTON      LGT RAIN  40  38  89 N20G26    29.90R WCI  31
MCCOOK         CLOUDY    43  40  89 N30G46    29.81R
OGALLALA       LGT RAIN  44  40  88 N29G37    29.91S
$$

NEZ005>010-023>029-035>040-094-241600-
NORTH CENTRAL NEBRASKA

CITY           SKY/WX    TMP DP  RH WIND       PRES   REMARKS
VALENTINE      CLOUDY    42  35  76 N14G22    30.05R
AINSWORTH      CLOUDY    39  38  99 N20       30.01S WCI  29
BROKEN BOW     CLOUDY    41  37  86 N22G33    29.93R
O`NEILL        CLOUDY    38  38  97 N18G25    29.99R FOG     WCI  29
ORD            CLOUDY    40  36  86 N17G29    29.93R WCI  31
THEDFORD       DRIZZLE   40  39  95 N17G23    30.01R WCI  32
$$

NEZ041-046>049-061>064-073>077-083>087-241600-
SOUTH CENTRAL NEBRASKA

CITY           SKY/WX    TMP DP  RH WIND       PRES   REMARKS
GRAND ISLAND   LGT RAIN  42  42 100 N16       29.89R FOG
AURORA         CLOUDY    44  42  95 N25       29.86S FOG
HASTINGS       CLOUDY    45  41  86 N23G32    29.86R
HEBRON         CLOUDY    53  51  93 N18       29.82R FOG
HOLDREGE       CLOUDY    43  40  91 N28G33    29.86R
KEARNEY *      CLOUDY    43  37  81 N20G29    29.89R
YORK           CLOUDY    45  45 100 N25G31    29.86R FOG
$$

NEZ011>018-030>034-042>045-241600-
NORTHEAST NEBRASKA

CITY           SKY/WX    TMP DP  RH WIND       PRES   REMARKS
NORFOLK        CLOUDY    40  38  93 N17       29.93R FOG     WCI  31
ALBION         DRIZZLE   41  38  90 N16G23    29.92R
BLAIR          CLOUDY    47  45  95 N20       29.86R FOG
FREMONT        CLOUDY    45  44  97 N10G20    29.89R FOG
TEKAMAH        LGT RAIN  44  42  93 N20       29.89R
WAYNE          CLOUDY    41  40  97 N15       29.93R
$$

NEZ050>053-065>068-078-088>093-241600-
SOUTHEAST NEBRASKA

CITY           SKY/WX    TMP DP  RH WIND       PRES   REMARKS
LINCOLN        CLOUDY    50  47  89 N20       29.87R
OMAHA EPPLEY   LGT RAIN  49  45  86 N14       29.86R FOG
BEATRICE       CLOUDY    59  56  91 NE13      29.80R
FALLS CITY     LGT RAIN  59  53  80 S7        29.84R
NEBRASKA CITY  CLOUDY    57  52  82 SW5       29.82R
PLATTSMOUTH    LGT RAIN  54  51  90 NW6       29.85R
$$

NEZ044-045-051>053-067-241600-
OMAHA AREA

CITY           SKY/WX    TMP DP  RH WIND       PRES   REMARKS
OMAHA EPPLEY   LGT RAIN  49  45  86 N14       29.86R FOG
BLAIR          CLOUDY    47  45  95 N20       29.86R FOG
FREMONT        CLOUDY    45  44  97 N10G20    29.89R FOG
MILLARD        LGT RAIN  51  48  91 N10       29.87R
OFFUTT AFB     RAIN      50  48  92 N12G17    29.85R
PLATTSMOUTH    LGT RAIN  54  51  90 NW6       29.85R
WAHOO          CLOUDY    47  44  91 N18G26    29.88R
$$




USA.gov is the U.S. government's official web portal to all federal, state and local government web resources and services.